AirNav   Pilot Hours Calculator
 
 1481 users online  

00AL Epps Airpark
Harvest, Alabama, USA

GOING TO HARVEST?


FAA INFORMATION EFFECTIVE 10 OCTOBER 2019

Location

FAA Identifier: 00AL
Lat/Long: 34-51-53.3170N 086-46-12.9990W
34-51.888617N 086-46.216650W
34.8648103,-86.7702775
(estimated)
Elevation: 820 ft. / 250 m (estimated)
Variation: 00W (1985)
From city: 1 mile NW of HARVEST, AL
Time zone: UTC -5 (UTC -6 during Standard Time)
Zip code: 35749

Airport Operations

Airport use: Private use. Permission required prior to landing
Activation date: 10/1964
Control tower: no
ARTCC: MEMPHIS CENTER
FSS: ANNISTON FLIGHT SERVICE STATION
Attendance: UNATNDD
Wind indicator: yes
Segmented circle: no

Airport Communications

WX AWOS-3PT at MDQ (10 nm E): 120.000 (256-829-1242)
WX ASOS at HSV (14 nm S): PHONE 256-772-8074
WX ASOS at DCU (15 nm SW): 118.375 (256-350-4270)
WX AWOS-3 at FYM (15 nm NE): 135.275 (931-433-5916)

Nearby radio navigation aids

VOR radial/distance  VOR name  Freq  Var
RQZr299/7.8ROCKET VORTAC112.2002E
DCUr034/15.4DECATUR VOR/DME112.8001W
MSLr074/36.8MUSCLE SHOALS VORTAC116.5001E

 
NDB name  Hdg/Dist  Freq  Var  ID
REDSTONE342/10.828704WHUA .... ..- .-

Airport Services

Airframe service: NONE
Powerplant service: NONE

Runway Information

Runway 1/19

Dimensions: 2300 x 200 ft. / 701 x 61 m
Surface: turf
RUNWAY 1  RUNWAY 19
Traffic pattern: leftleft

Airport Ownership and Management from official FAA records

Ownership: Privately-owned
Owner: GEORGE F. EPPS
1635 HARVEST RD, P.O. BOX 356
HARVEST, AL 35749
Phone 256-837-2369
Manager: GEORGE F. EPPS
1635 HARVEST RD, P.O. BOX 356
HARVEST, AL 35749
Phone 256-837-2369

Airport Operational Statistics

Aircraft based on the field: 8
Single engine airplanes: 7
Gliders airplanes: 1
    

Additional Remarks

FOR CD CTC MEMPHIS ARTCC AT 901-368-8453.

Instrument Procedures

There are no published instrument procedures at 00AL.

Some nearby airports with instrument procedures:

KMDQ - Huntsville Executive Airport / Tom Sharp Jr Field (10 nm E)
KHUA - Redstone Army Airfield (12 nm S)
KHSV - Huntsville International Airport-Carl T Jones Field (14 nm S)
KDCU - Pryor Field Regional Airport (15 nm SW)
KFYM - Fayetteville Municipal Airport (15 nm NE)
 
Loc | Ops | Rwys | IFR | FBO | Links
Com | Nav | Svcs | Stats | Notes
Area around 00AL (Epps Airpark)
 
Road maps at: MapQuest Bing Google
 
Aerial photo
No photo
 
Sectional chart

 
Airport distance calculator
Flying to Epps Airpark? Find the distance to fly.

From to 00AL

Sunrise and sunset
Times for 17-Oct-2019
 Local
(UTC-5)
 Zulu
(UTC)
Morning civil twilight06:3011:30
Sunrise06:5611:56
Sunset18:0923:09
Evening civil twilight18:3523:35

Current date and time
Zulu (UTC)  17-Oct-2019 19:51:20
Local (UTC-5)  17-Oct-2019 14:51:20
 
METAR
KMDQ 
11nm E 
171935Z AUTO 36007KT 10SM CLR 17/03 A3001 RMK A02 T01680030
KHUA 
12nm S 
171858Z AUTO 03006KT 10SM CLR 16/03 A3001 RMK AO2 SLP163 T01620031
KHSV 
13nm S 
171853Z 01007KT 10SM CLR 18/03 A3002 RMK AO2 SLP164 T01780033 $
KFYM 
15nm NE 
171935Z AUTO VRB03G13KT 10SM CLR 16/03 A3000 RMK A01
KDCU 
16nm SW 
171853Z AUTO VRB03KT 10SM CLR 16/03 A3003 RMK AO2 SLP169 T01610033
TAF
KHSV 
13nm S 
171720Z 1718/1818 03005KT P6SM SKC
NOTAMs
Click for the latest NOTAMs
NOTAMs are issued by the DoD/FAA and will open in a separate window not controlled by AirNav.

 

 
 

Would you like to see your business listed on this page?

 If your business provides an interesting product or service to pilots, flight crews, aircraft, or users of the Epps Airpark, you should consider listing it here.  To start the listing process, click on the button below
 
Add a business
 

Other Pages about Epps Airpark

Update a link
 
Copyright © AirNav, LLC. All rights reserved. Privacy Policy  Contact